[[{"header":{"parameterUnit":"m.s-1","parameterCategory":1,"la1":30.2991,"la2":30.254,"lo1":-89.0895,"lo2":-89.0444,"dy":0.0017,"dx":0.0017,"nx":28,"ny":28,"refTime":"2024-03-26T21:00:00:Z","depth":0,"parameterNumber":2,"parameterNumberName":"U-component_of_WINDS"},"data":[0,0,0,0,0,0,0,0,0,0,0,0,0,0,0,0,0,0,0,0,0,0,0,0,0,0,0,0,0,0,0,0,0,0,0,0,0,0,0,0,0,0,0,0,0,0,0,0,0,0,0,0,0,0,0,0,0,0,0.4213,0.4212,0,0.4129,0.4128,0.4127,0.4109,0.4109,0.411,0.4111,0.402,0.4017,0.4014,0,0,0,0,0,0,0,0,0,0,0,0,0,0.4353,0.4351,0.4213,0.4212,0.4211,0.4129,0.4128,0.4126,0.4109,0.4109,0.411,0.4111,0.4021,0.4017,0.4013,0,0,0,0,0,0,0,0,0,0,0,0,0,0.4283,0.435,0.4213,0.4192,0.4189,0.4129,0.4128,0.4126,0.4108,0.4109,0.411,0.4111,0.4022,0.4017,0.4013,0.3966,0,0,0.3999,0.3997,0,0,0,0,0,0,0,0,0.4287,0.4278,0.4196,0.4193,0.419,0.413,0.4144,0.4072,0.4108,0.4139,0.4111,0.4112,0.4055,0.4048,0.403,0.3962,0.3958,0.3999,0.3996,0.3994,0.3993,0,0,0,0,0,0,0,0.4292,0.4281,0.4179,0.4195,0.4191,0.4185,0.4176,0.413,0.4093,0.4136,0.4135,0.4125,0.4054,0.4035,0.4028,0.3956,0.3999,0.3995,0.3992,0.399,0.3845,0.3844,0,0,0,0,0,0,0.4301,0.4286,0.4182,0.4177,0.4242,0.4182,0.4172,0.4148,0.4093,0.4086,0.4125,0.4125,0.4042,0.4033,0.4025,0.3965,0.3994,0.399,0.3987,0.3846,0.3844,0.3843,0,0,0,0,0,0,0.4304,0.4292,0.4185,0.4231,0.4217,0.4179,0.4152,0.4146,0.4127,0.4084,0.4077,0.4112,0.4042,0.4031,0.3981,0.3962,0.3988,0.3984,0.3847,0.3845,0.3844,0.3847,0,0,0,0,0,0,0.4308,0.4293,0.4276,0.4231,0.4214,0.4144,0.4151,0.4144,0.412,0.4119,0.4071,0.4063,0.4042,0.3988,0.3976,0.3956,0.398,0.3849,0.3846,0.3844,0.3848,0.3845,0.3843,0,0,0,0,0,0.4313,0.4279,0.4275,0.4263,0.4192,0.4143,0.4134,0.4111,0.4118,0.41,0.4073,0.4065,0.3966,0.3983,0.397,0.3948,0.385,0.3847,0.3844,0.3849,0.3846,0.3843,0,0,0,0,0,0,0.4321,0.4273,0.4268,0.4218,0.4185,0.414,0.4116,0.4108,0.4071,0.4072,0.4044,0.4034,0.3985,0.3962,0.3981,0.3899,0.3908,0.3903,0.3916,0.3912,0.391,0.3916,0.3976,0,0,0,0,0,0.4318,0.4284,0.4242,0.4203,0.4187,0.4155,0.4132,0.4118,0.4082,0.4067,0.4036,0.4,0.3961,0.3936,0.3897,0.3845,0.3834,0.3824,0.3821,0.3819,0.3814,0.3784,0.3779,0.3835,0.3835,0.3835,0,0,0.4309,0.4278,0.4258,0.4203,0.4176,0.414,0.4143,0.4104,0.4076,0.4061,0.4012,0.3988,0.3946,0.3895,0.3871,0.3874,0.3797,0.3816,0.3815,0.3811,0.3781,0.3776,0.3771,0.3833,0.3833,0.3833,0,0,0.4275,0.4249,0.4212,0.4185,0.4145,0.4124,0.4115,0.4072,0.4056,0.4007,0.3994,0.3961,0.3894,0.3864,0.3841,0.3796,0.3787,0.3784,0.377,0.3741,0.3736,0.3732,0.3715,0.3709,0.378,0.378,0.378,0,0.4268,0.4215,0.4194,0.4156,0.4132,0.4119,0.4081,0.4055,0.4003,0.3986,0.3991,0.3907,0.3878,0.3819,0.3809,0.379,0.3778,0.3789,0.3739,0.3735,0.373,0.3714,0.3707,0.378,0.378,0.378,0.378,0,0.4208,0.4172,0.4147,0.4099,0.4072,0.4034,0.4007,0.3982,0.397,0.3949,0.3898,0.3863,0.3817,0.3803,0.379,0.3742,0.3745,0.3745,0.3753,0.3725,0.3709,0.3702,0.378,0.378,0.378,0.378,0,0,0.4175,0.4118,0.4108,0.4086,0.4041,0.4011,0.3973,0.393,0.3908,0.3873,0.3839,0.3784,0.3784,0.3757,0.3741,0.3716,0.3681,0.3719,0.3717,0.3712,0.3624,0.3624,0.3617,0.3676,0.3675,0.3674,0.3627,0,0.4134,0.4066,0.4047,0.3989,0.3954,0.3941,0.3907,0.3875,0.3854,0.382,0.3796,0.3757,0.376,0.3744,0.3718,0.3691,0.3663,0.3694,0.3642,0.3641,0.3652,0.3608,0.3607,0.3565,0.3621,0.362,0.3619,0,0.4076,0.4042,0.3981,0.3941,0.3925,0.3895,0.3854,0.3822,0.3785,0.3772,0.3742,0.3729,0.3687,0.3699,0.364,0.3662,0.3639,0.3623,0.3621,0.3613,0.3627,0.3598,0.3551,0.3544,0.3609,0.361,0.3611,0,0.4056,0.3995,0.395,0.3932,0.3884,0.3863,0.3842,0.3806,0.3781,0.3745,0.3728,0.3687,0.3664,0.3632,0.3608,0.3619,0.355,0.356,0.3536,0.3536,0.352,0.3521,0.3467,0.3509,0.3509,0.3509,0.3509,0,0.4011,0.3974,0.3941,0.3913,0.3871,0.3849,0.3807,0.3785,0.3753,0.372,0.3707,0.3675,0.3646,0.3611,0.3591,0.3545,0.3535,0.3521,0.3516,0.3521,0.3523,0.3505,0.3506,0.3507,0.3508,0.3508,0.3509,0,0.398,0.3957,0.3907,0.3867,0.3856,0.3826,0.379,0.3762,0.3742,0.37,0.3689,0.3655,0.3613,0.3586,0.3532,0.3519,0.3467,0.3464,0.348,0.3477,0.3454,0.3456,0.3385,0.3374,0.3425,0.3424,0.3424,0,0.3952,0.3924,0.388,0.3858,0.3837,0.3801,0.3776,0.3754,0.3728,0.3684,0.3661,0.3619,0.3583,0.3516,0.3486,0.3444,0.3439,0.3417,0.3432,0.3438,0.3436,0.3438,0.3434,0.3413,0.3413,0.3413,0.3412,0,0.3904,0.3895,0.386,0.3822,0.3793,0.3761,0.3729,0.3711,0.3683,0.3655,0.3612,0.3585,0.3531,0.3488,0.3444,0.342,0.341,0.3408,0.34,0.3404,0.3414,0.3407,0.3471,0.3409,0.341,0.341,0.341,0.341,0.3873,0.3847,0.3813,0.3774,0.3749,0.3719,0.3691,0.3668,0.3632,0.3587,0.3576,0.3531,0.3494,0.3435,0.341,0.3374,0.3377,0.3365,0.3362,0.3359,0.3358,0.3422,0.3366,0.3366,0.3366,0.3366,0.3366,0,0.3823,0.3801,0.3766,0.3723,0.3693,0.369,0.3654,0.3629,0.359,0.3558,0.3524,0.3474,0.3433,0.3401,0.3358,0.3335,0.3329,0.3324,0.3324,0.3319,0.3359,0.3369,0.3329,0.3329,0.3329,0.3329,0.3329,0.3329,0.3794,0.3749,0.3735,0.3677,0.3654,0.3612,0.3592,0.3564,0.3538,0.3485,0.3451,0.3431,0.3398,0.3353,0.3314,0.3305,0.3289,0.3285,0.3275,0.3312,0.3316,0.332,0.333,0.3282,0.3282,0.3238,0.3238,0.3237]},{"header":{"parameterUnit":"m.s-1","parameterCategory":1,"la1":30.2991,"la2":30.254,"lo1":-89.0895,"lo2":-89.0444,"dy":0.0017,"dx":0.0017,"nx":28,"ny":28,"refTime":"2024-03-26T21:00:00:Z","depth":0,"parameterNumber":3,"parameterNumberName":"V-component_of_WINDS"},"data":[0,0,0,0,0,0,0,0,0,0,0,0,0,0,0,0,0,0,0,0,0,0,0,0,0,0,0,0,0,0,0,0,0,0,0,0,0,0,0,0,0,0,0,0,0,0,0,0,0,0,0,0,0,0,0,0,0,0,-5.8703,-5.8704,0,-5.8795,-5.8796,-5.8797,-5.8719,-5.8716,-5.8713,-5.871,-5.8799,-5.8805,-5.881,0,0,0,0,0,0,0,0,0,0,0,0,0,-5.8458,-5.8463,-5.8703,-5.8704,-5.8706,-5.8795,-5.8796,-5.8797,-5.872,-5.8716,-5.8712,-5.8708,-5.8798,-5.8804,-5.881,0,0,0,0,0,0,0,0,0,0,0,0,0,-5.8559,-5.8465,-5.8703,-5.8678,-5.8676,-5.8794,-5.8796,-5.8797,-5.872,-5.8716,-5.8711,-5.8706,-5.8796,-5.8803,-5.8811,-5.8958,0,0,-5.8836,-5.884,0,0,0,0,0,0,0,0,-5.8553,-5.8568,-5.868,-5.868,-5.8678,-5.8741,-5.8742,-5.8851,-5.8722,-5.8704,-5.8709,-5.8704,-5.8784,-5.8792,-5.882,-5.8962,-5.8966,-5.8837,-5.8842,-5.8845,-5.8847,0,0,0,0,0,0,0,-5.8546,-5.8563,-5.8739,-5.8682,-5.8681,-5.8661,-5.867,-5.8762,-5.8769,-5.8705,-5.8699,-5.8711,-5.8782,-5.8812,-5.8821,-5.8967,-5.8837,-5.8844,-5.8849,-5.8852,-5.9234,-5.9239,0,0,0,0,0,0,-5.8542,-5.8558,-5.8736,-5.8742,-5.8603,-5.8669,-5.8679,-5.8725,-5.8768,-5.877,-5.8716,-5.8708,-5.8801,-5.8812,-5.8824,-5.8999,-5.8845,-5.8853,-5.8857,-5.9229,-5.9236,-5.9241,0,0,0,0,0,0,-5.8537,-5.8559,-5.8733,-5.8649,-5.8669,-5.8678,-5.8731,-5.873,-5.876,-5.8776,-5.8777,-5.8746,-5.8797,-5.8813,-5.8926,-5.9001,-5.8856,-5.8864,-5.9223,-5.9231,-5.9238,-5.935,0,0,0,0,0,0,-5.8531,-5.8558,-5.8614,-5.8651,-5.8674,-5.8834,-5.8736,-5.8735,-5.8775,-5.8765,-5.8805,-5.8806,-5.8795,-5.8914,-5.8934,-5.901,-5.887,-5.9216,-5.9227,-5.9236,-5.934,-5.9361,-5.9379,0,0,0,0,0,-5.8522,-5.8641,-5.8618,-5.8639,-5.8745,-5.8839,-5.8852,-5.8837,-5.8781,-5.8838,-5.8848,-5.8805,-5.899,-5.8926,-5.8948,-5.9027,-5.9211,-5.9224,-5.9235,-5.9331,-5.9357,-5.9379,0,0,0,0,0,0,-5.8612,-5.8645,-5.862,-5.8754,-5.8794,-5.8825,-5.8896,-5.8865,-5.8921,-5.8909,-5.8888,-5.8897,-5.9016,-5.9033,-5.8961,-5.9171,-5.9091,-5.9108,-5.9157,-5.9181,-5.9201,-5.9194,-5.8877,0,0,0,0,0,-5.8648,-5.8722,-5.8746,-5.8863,-5.8884,-5.8887,-5.8927,-5.8913,-5.8953,-5.8969,-5.8987,-5.9027,-5.9094,-5.9138,-5.92,-5.9341,-5.9349,-5.9407,-5.9426,-5.9442,-5.9457,-5.9533,-5.956,-5.9281,-5.928,-5.928,0,0,-5.8722,-5.8749,-5.8797,-5.8882,-5.8911,-5.8987,-5.8902,-5.8986,-5.9042,-5.8981,-5.9089,-5.9105,-5.9147,-5.9275,-5.9332,-5.9292,-5.9536,-5.9458,-5.947,-5.9477,-5.9548,-5.9575,-5.9598,-5.9289,-5.9287,-5.9286,0,0,-5.8896,-5.8924,-5.9025,-5.9056,-5.9103,-5.9104,-5.9128,-5.9164,-5.9172,-5.9281,-5.9237,-5.9302,-5.9418,-5.945,-5.9482,-5.9669,-5.9632,-5.969,-5.9793,-5.9867,-5.9889,-5.9908,-5.9976,-6.0,-5.9704,-5.9705,-5.9705,0,-5.8982,-5.9097,-5.908,-5.9168,-5.9207,-5.9156,-5.9257,-5.9288,-5.9352,-5.9379,-5.9334,-5.9478,-5.9503,-5.9638,-5.9684,-5.9711,-5.9737,-5.9685,-5.9887,-5.9907,-5.9925,-5.9988,-6.0014,-5.9711,-5.9711,-5.971,-5.9709,0,-5.9201,-5.9281,-5.9356,-5.9421,-5.9467,-5.9562,-5.9558,-5.9607,-5.9588,-5.9594,-5.9705,-5.9733,-5.9801,-5.9831,-5.9813,-5.9964,-5.9938,-5.9891,-5.981,-5.9958,-6.0018,-6.0042,-5.9721,-5.9719,-5.9717,-5.9715,0,0,-5.9435,-5.9489,-5.9517,-5.9546,-5.9594,-5.9655,-5.9746,-5.9814,-5.9856,-5.9901,-5.9978,-6.0077,-6.0034,-6.0069,-6.0054,-6.012,-6.0267,-6.0064,-6.0065,-6.0101,-6.0435,-6.0471,-6.05,-6.0242,-6.0247,-6.025,-6.0432,0,-5.9612,-5.9773,-5.976,-5.9912,-5.9986,-5.9939,-6.0018,-6.0056,-6.0063,-6.0126,-6.0133,-6.0205,-6.0142,-6.0163,-6.0226,-6.0236,-6.0334,-6.0222,-6.0312,-6.0316,-6.0304,-6.0531,-6.0569,-6.0739,-6.0455,-6.0459,-6.0462,0,-5.984,-5.9896,-6.0055,-6.0092,-6.0122,-6.0195,-6.0255,-6.0316,-6.0357,-6.0358,-6.0399,-6.0373,-6.0464,-6.038,-6.0506,-6.043,-6.0466,-6.0477,-6.0483,-6.0491,-6.0398,-6.0546,-6.0793,-6.0819,-6.0498,-6.0495,-6.0493,0,-5.9996,-6.011,-6.022,-6.0246,-6.0292,-6.0344,-6.0365,-6.0401,-6.0442,-6.0495,-6.0522,-6.0584,-6.0618,-6.0666,-6.0657,-6.0597,-6.0785,-6.0701,-6.0788,-6.0788,-6.083,-6.0828,-6.1087,-6.0852,-6.0852,-6.0851,-6.0851,0,-6.0196,-6.0295,-6.0291,-6.0359,-6.0469,-6.0453,-6.0562,-6.0577,-6.061,-6.0679,-6.0641,-6.0706,-6.069,-6.0755,-6.0748,-6.0853,-6.0869,-6.0871,-6.0869,-6.0876,-6.0875,-6.0899,-6.0887,-6.0858,-6.0856,-6.0855,-6.0854,0,-6.0389,-6.039,-6.0507,-6.0541,-6.0552,-6.0632,-6.066,-6.0724,-6.0728,-6.0816,-6.0836,-6.0843,-6.0917,-6.0913,-6.0996,-6.0991,-6.1121,-6.1104,-6.1108,-6.1105,-6.1193,-6.1185,-6.1477,-6.1514,-6.1255,-6.1257,-6.1259,0,-6.0516,-6.0592,-6.0635,-6.0679,-6.0704,-6.0776,-6.0819,-6.0805,-6.0851,-6.0903,-6.0961,-6.1032,-6.1088,-6.1209,-6.122,-6.1284,-6.1268,-6.1366,-6.1278,-6.1282,-6.1271,-6.1267,-6.1274,-6.1384,-6.1387,-6.1389,-6.1391,0,-6.0743,-6.0741,-6.0804,-6.0869,-6.0921,-6.0971,-6.1016,-6.1054,-6.1045,-6.1098,-6.1175,-6.1219,-6.1304,-6.1375,-6.1436,-6.1456,-6.1423,-6.1419,-6.1443,-6.1451,-6.1451,-6.1453,-6.1157,-6.1413,-6.141,-6.1409,-6.1408,-6.1407,-6.0908,-6.0974,-6.1014,-6.1086,-6.1119,-6.1163,-6.1225,-6.1238,-6.1302,-6.1372,-6.1359,-6.1445,-6.1483,-6.1562,-6.1588,-6.1653,-6.1618,-6.1652,-6.1661,-6.167,-6.1681,-6.144,-6.1664,-6.1664,-6.1663,-6.1663,-6.1662,0,-6.1134,-6.1158,-6.1225,-6.129,-6.1347,-6.1311,-6.136,-6.1409,-6.1486,-6.1525,-6.1581,-6.1669,-6.1738,-6.1755,-6.1821,-6.187,-6.1857,-6.1888,-6.1885,-6.189,-6.1708,-6.1681,-6.1898,-6.1898,-6.1898,-6.1898,-6.1898,-6.1898,-6.1258,-6.1368,-6.137,-6.1495,-6.1517,-6.1602,-6.1633,-6.1672,-6.1704,-6.1804,-6.1862,-6.1873,-6.1903,-6.1971,-6.2032,-6.2035,-6.2061,-6.2099,-6.2096,-6.1926,-6.1902,-6.188,-6.1855,-6.2105,-6.2105,-6.2273,-6.2274,-6.2275]}]]